Regional Weather Roundup
Issued by NWS Jackson, KY

Home | Current Version | Previous Version | Text Only | Print | Product List | Glossary Off
Versions: 1 2 3 4 5 6 7 8 9 10 11 12 13 14 15 16 17 18 19 20 21 22 23 24 25 26 27 28 29 30 31 32 33 34 35 36 37 38 39 40 41 42 43 44 45 46 47 48 49 50

000
ASUS43 KJKL 260310
RWRJKL

EAST KENTUCKY HOURLY WEATHER ROUNDUP
NATIONAL WEATHER SERVICE JACKSON KY
1100 PM EDT TUE APR 25 2017

NOTE: "FAIR" INDICATES FEW OR NO CLOUDS BELOW 12,000 FEET WITH
NO SIGNIFICANT WEATHER AND/OR OBSTRUCTIONS TO VISIBILITY.

* THESE REPORTS ARE NOT UNDER NWS QUALITY CONTROL AND MAY NOT
  REPORT WEATHER SUCH AS PRECIPITATION AND FOG.

KYZ079-080-083-085-087-088-110-112-115-119-120-260400
...EASTERN KENTUCKY...

CITY           SKY/WX    TMP DP  RH WIND       PRES   REMARKS
JACKSON        CLEAR     64  54  69 S3        29.76R
LONDON         CLEAR     59  55  87 SE3       29.76R
SOMERSET*      CLEAR     55  55 100 CALM      29.76R
MONTICELLO*    CLEAR     55  53  93 CALM      29.76R
WILLIAMSBURG*  CLEAR     61  59  94 SE3       29.76R
MIDDLESBORO*   CLEAR     58  57  96 CALM      29.79S
HARLAN APT*    CLEAR     59  55  88 CALM      29.79R
$$

KYZ035-036-041-042-044-050-067-078-099-260400
...CENTRAL KENTUCKY...

CITY           SKY/WX    TMP DP  RH WIND       PRES   REMARKS
MT STERLING*   CLEAR     59  55  88 SW5       29.75R
FLEMING/MASON* CLEAR     64  57  79 CALM      29.74S
DANVILLE*      CLEAR     55  54  94 CALM      29.74S
LEXINGTON      CLEAR     63  54  72 SE6       29.72S
FRANKFORT      CLEAR     64  54  69 SE5       29.70R
LOUISVILLE     PTCLDY    67  57  70 SE8       29.68R
LEBANON*         N/A     63  55  77 SE6       29.72R
GLASGOW*       CLEAR     64  55  71 SE3       29.71S
BOWLING GREEN  CLEAR     63  57  81 SE5       29.69S
$$

KYZ091>093-OHZ055-061-077-WVZ005-015-034-035-042-260400
...SOUTHERN OHIO/WEST VIRGINIA...

CITY           SKY/WX    TMP DP  RH WIND       PRES   REMARKS
COVINGTON      PTCLDY    62  56  80 S10       29.69F
COLUMBUS       PTCLDY    64  54  69 E6        29.72S
DAYTON         PTCLDY    64  55  72 SE9       29.70S
WILMINGTON     CLEAR     63  57  81 SE7       29.71S
HUNTINGTON     CLEAR     61  56  83 E3        29.73S
CHARLESTON     MOCLDY    62  58  86 CALM      29.75R
PINEVILLE*     CLEAR     57  55  94 MISG      29.83S
BECKLEY        CLOUDY    58  55  90 CALM      29.80S
BLUEFIELD      CLOUDY    56  55  97 CALM      29.83R
LOGAN CO APT*    N/A     63  57  82 CALM      29.77R
$$

VAZ002-007-008-TNZ017-027-036-066-071-260400
...SOUTHWEST VIRGINIA/EAST TENNESSEE...

CITY           SKY/WX    TMP DP  RH WIND       PRES   REMARKS
WISE*          CLEAR     55  55 100 CALM      29.83S
JONESVILLE*      N/A     57  57 100 CALM      29.81R
ABINGDON*      PTCLDY    60  57  89 CALM      29.81S
BRISTOL        CLEAR     56  54  93 CALM      29.79S
SEVIERVILLE*   CLEAR     57  54  88 CALM      29.77R
KNOXVILLE      PTCLDY    62  55  77 CALM      29.76R
LAFOLLETTE*    PTCLDY    59  57  94 CALM      29.80R
OAK RIDGE      CLEAR     62  56  80 CALM      29.78R
CROSSVILLE     CLEAR     57  54  89 CALM      29.79R
NASHVILLE      CLEAR     65  56  72 S5        29.70S
$$

...KEY TO REMARKS...
VSB - VISIBILITY IN MILES
WCI - WIND CHILL INDEX
HX  - HEAT INDEX

$$



USA.gov is the U.S. government's official web portal to all federal, state and local government web resources and services.